Stündliche Wetter Abbadia San Salvatore

Heute, 18 Juni, Freitag

Zeit Temperatur Niederschläge Wind Luftdruck Luftfeuchtigkeit
00:00 +13°C° 0 mm 0 m/S 675 mmHg 76%
01:00 +12°C° 0 mm 0 m/S 674 mmHg 76%
02:00 +12°C° 0 mm 0 m/S 674 mmHg 76%
03:00 +13°C° 0 mm 1 m/S 674 mmHg 75%
04:00 +13°C° 0 mm 1 m/S 674 mmHg 75%
05:00 +14°C° 0 mm 1 m/S 675 mmHg 69%
06:00 +16°C° 0 mm 1 m/S 675 mmHg 64%
07:00 +18°C° 0 mm 1 m/S 676 mmHg 58%
08:00 +20°C° 0 mm 1 m/S 676 mmHg 50%
09:00 +23°C° 0 mm 1 m/S 677 mmHg 42%
10:00 +25°C° 0 mm 1 m/S 677 mmHg 35%
11:00 +26°C° 0 mm 2 m/S 677 mmHg 32%
12:00 +27°C° 0 mm 2 m/S 677 mmHg 30%
13:00 +28°C° 0 mm 3 m/S 677 mmHg 27%
14:00 +28°C° 0 mm 3 m/S 677 mmHg 29%
15:00 +27°C° 0 mm 4 m/S 677 mmHg 30%
16:00 +27°C° 0 mm 4 m/S 677 mmHg 31%
17:00 +25°C° 0 mm 4 m/S 676 mmHg 37%
18:00 +22°C° 0 mm 3 m/S 676 mmHg 44%
19:00 +20°C° 0 mm 2 m/S 675 mmHg 50%
20:00 +18°C° 0 mm 2 m/S 675 mmHg 56%
21:00 +16°C° 0 mm 1 m/S 675 mmHg 61%
22:00 +14°C° 0 mm 1 m/S 675 mmHg 66%
23:00 +14°C° 0 mm 1 m/S 675 mmHg 65%

Morgen, 19 Juni, Samstag

Zeit Temperatur Niederschläge Wind Luftdruck Luftfeuchtigkeit
00:00 +12°C° 0 mm 0 m/S 675 mmHg 65%
01:00 +12°C° 0 mm 0 m/S 674 mmHg 64%
02:00 +12°C° 0 mm 0 m/S 674 mmHg 63%
03:00 +12°C° 0 mm 0 m/S 674 mmHg 62%
04:00 +12°C° 0 mm 1 m/S 674 mmHg 61%
05:00 +13°C° 0 mm 0 m/S 675 mmHg 57%
06:00 +15°C° 0 mm 0 m/S 675 mmHg 52%
07:00 +17°C° 0 mm 0 m/S 675 mmHg 48%
08:00 +19°C° 0 mm 0 m/S 676 mmHg 42%
09:00 +24°C° 0 mm 1 m/S 676 mmHg 37%
10:00 +26°C° 0 mm 1 m/S 676 mmHg 31%
11:00 +27°C° 0 mm 2 m/S 676 mmHg 30%
12:00 +28°C° 0 mm 2 m/S 676 mmHg 28%
13:00 +29°C° 0 mm 3 m/S 677 mmHg 27%
14:00 +29°C° 0 mm 3 m/S 676 mmHg 28%
15:00 +29°C° 0 mm 3 m/S 676 mmHg 29%
16:00 +29°C° 0 mm 3 m/S 676 mmHg 30%
17:00 +27°C° 0 mm 2 m/S 675 mmHg 36%
18:00 +25°C° 0 mm 2 m/S 675 mmHg 42%
19:00 +23°C° 0 mm 2 m/S 674 mmHg 47%
20:00 +21°C° 0 mm 2 m/S 674 mmHg 52%
21:00 +20°C° 0 mm 1 m/S 674 mmHg 57%
22:00 +18°C° 0 mm 1 m/S 674 mmHg 62%
23:00 +16°C° 0 mm 1 m/S 674 mmHg 62%

übermorgen, 20 Juni, Sonntag

Zeit Temperatur Niederschläge Wind Luftdruck Luftfeuchtigkeit
00:00 +16°C° 0 mm 1 m/S 673 mmHg 62%
01:00 +15°C° 0 mm 1 m/S 673 mmHg 62%
02:00 +14°C° 0 mm 0 m/S 673 mmHg 62%
03:00 +14°C° 0 mm 0 m/S 673 mmHg 61%
04:00 +14°C° 0 mm 0 m/S 673 mmHg 61%
05:00 +18°C° 0 mm 1 m/S 673 mmHg 56%
06:00 +20°C° 0 mm 1 m/S 673 mmHg 52%
07:00 +22°C° 0 mm 1 m/S 674 mmHg 48%
08:00 +23°C° 0 mm 1 m/S 674 mmHg 43%
09:00 +25°C° 0 mm 1 m/S 675 mmHg 39%
10:00 +27°C° 0 mm 2 m/S 675 mmHg 34%
11:00 +28°C° 0 mm 2 m/S 675 mmHg 33%
12:00 +29°C° 0 mm 2 m/S 675 mmHg 32%
13:00 +29°C° 0 mm 3 m/S 674 mmHg 31%
14:00 +29°C° 0 mm 3 m/S 674 mmHg 32%
15:00 +29°C° 0 mm 4 m/S 674 mmHg 32%
16:00 +29°C° 0 mm 4 m/S 674 mmHg 33%
17:00 +26°C° 0 mm 4 m/S 673 mmHg 43%
18:00 +22°C° 0 mm 3 m/S 673 mmHg 54%
19:00 +20°C° 0 mm 2 m/S 672 mmHg 64%
20:00 +20°C° 0 mm 1 m/S 672 mmHg 65%
21:00 +19°C° 0 mm 1 m/S 671 mmHg 65%
22:00 +18°C° 0 mm 1 m/S 671 mmHg 65%
23:00 +18°C° 0 mm 1 m/S 671 mmHg 66%

21 Juni, Montag

Zeit Temperatur Niederschläge Wind Luftdruck Luftfeuchtigkeit
00:00 +16°C° 0 mm 1 m/S 671 mmHg 66%
01:00 +16°C° 0 mm 1 m/S 671 mmHg 67%
02:00 +16°C° 0 mm 1 m/S 670 mmHg 67%
03:00 +16°C° 0 mm 1 m/S 670 mmHg 67%
04:00 +15°C° 0 mm 1 m/S 670 mmHg 67%
05:00 +18°C° 0 mm 1 m/S 671 mmHg 65%
06:00 +19°C° 0 mm 1 m/S 671 mmHg 62%
07:00 +20°C° 0 mm 1 m/S 672 mmHg 59%
08:00 +22°C° 0 mm 1 m/S 672 mmHg 52%
09:00 +25°C° 0 mm 1 m/S 673 mmHg 46%
10:00 +27°C° 0 mm 2 m/S 673 mmHg 39%
11:00 +28°C° 0 mm 3 m/S 673 mmHg 37%
12:00 +29°C° 0 mm 4 m/S 673 mmHg 36%
13:00 +30°C° 0 mm 5 m/S 673 mmHg 35%
14:00 +30°C° 0 mm 5 m/S 673 mmHg 35%
15:00 +29°C° 0 mm 5 m/S 673 mmHg 35%
16:00 +29°C° 0 mm 5 m/S 673 mmHg 35%
17:00 +27°C° 0 mm 4 m/S 673 mmHg 43%
18:00 +25°C° 0 mm 4 m/S 672 mmHg 52%
19:00 +22°C° 0 mm 3 m/S 672 mmHg 61%
20:00 +20°C° 0 mm 2 m/S 671 mmHg 71%
21:00 +18°C° 0 mm 2 m/S 671 mmHg 82%
22:00 +16°C° 0 mm 1 m/S 671 mmHg 92%
23:00 +16°C° 0 mm 1 m/S 671 mmHg 93%

22 Juni, Dienstag

Zeit Temperatur Niederschläge Wind Luftdruck Luftfeuchtigkeit
00:00 +15°C° 0 mm 1 m/S 671 mmHg 93%
01:00 +15°C° 0 mm 1 m/S 671 mmHg 93%
02:00 +15°C° 0 mm 1 m/S 671 mmHg 93%
03:00 +15°C° 0 mm 1 m/S 671 mmHg 93%
04:00 +14°C° 0 mm 0 m/S 670 mmHg 94%
05:00 +15°C° 0 mm 0 m/S 671 mmHg 87%
06:00 +16°C° 0 mm 0 m/S 671 mmHg 81%
07:00 +18°C° 0 mm 0 m/S 672 mmHg 74%
08:00 +22°C° 0 mm 1 m/S 672 mmHg 65%
09:00 +24°C° 0 mm 2 m/S 673 mmHg 56%
10:00 +26°C° 0 mm 2 m/S 673 mmHg 47%
11:00 +27°C° 0 mm 3 m/S 673 mmHg 44%
12:00 +28°C° 0 mm 4 m/S 674 mmHg 41%
13:00 +29°C° 0 mm 4 m/S 674 mmHg 38%
14:00 +29°C° 0 mm 4 m/S 674 mmHg 39%
15:00 +28°C° 0 mm 4 m/S 674 mmHg 40%
16:00 +28°C° 0 mm 4 m/S 673 mmHg 41%
17:00 +26°C° 0 mm 4 m/S 673 mmHg 46%
18:00 +25°C° 0 mm 3 m/S 673 mmHg 52%
19:00 +22°C° 0 mm 3 m/S 673 mmHg 57%
20:00 +20°C° 0 mm 2 m/S 672 mmHg 66%
21:00 +19°C° 0 mm 1 m/S 672 mmHg 74%
22:00 +15°C° 0 mm 1 m/S 672 mmHg 83%
23:00 +15°C° 0 mm 1 m/S 672 mmHg 83%

23 Juni, Mittwoch

Zeit Temperatur Niederschläge Wind Luftdruck Luftfeuchtigkeit
00:00 +15°C° 0 mm 1 m/S 672 mmHg 83%
01:00 +14°C° 0 mm 1 m/S 672 mmHg 83%
02:00 +14°C° 0 mm 1 m/S 672 mmHg 80%
03:00 +14°C° 0 mm 1 m/S 672 mmHg 76%
04:00 +13°C° 0 mm 1 m/S 672 mmHg 72%
05:00 +15°C° 0 mm 1 m/S 673 mmHg 64%
06:00 +16°C° 0 mm 0 m/S 673 mmHg 57%
07:00 +18°C° 0 mm 0 m/S 674 mmHg 49%
08:00 +22°C° 0 mm 1 m/S 674 mmHg 43%
09:00 +24°C° 0 mm 1 m/S 675 mmHg 37%
10:00 +26°C° 0 mm 2 m/S 675 mmHg 30%
11:00 +27°C° 0 mm 2 m/S 675 mmHg 27%
12:00 +28°C° 0 mm 3 m/S 675 mmHg 25%
13:00 +29°C° 0 mm 4 m/S 675 mmHg 22%
14:00 +29°C° 0 mm 4 m/S 675 mmHg 23%
15:00 +29°C° 0 mm 5 m/S 675 mmHg 23%
16:00 +28°C° 0 mm 5 m/S 675 mmHg 24%
17:00 +26°C° 0 mm 4 m/S 675 mmHg 31%
18:00 +23°C° 0 mm 4 m/S 675 mmHg 38%
19:00 +21°C° 0 mm 3 m/S 675 mmHg 45%
20:00 +19°C° 0 mm 2 m/S 674 mmHg 52%
21:00 +17°C° 0 mm 2 m/S 674 mmHg 59%
22:00 +14°C° 0 mm 1 m/S 674 mmHg 66%
23:00 +14°C° 0 mm 1 m/S 674 mmHg 66%
Mehr zeigen

Wir brauchen deine Erlaubnis

Meteoprog und unser Service Anbieter werden persönliche Daten aufbewahren, so wie Cookies, Geräte Bezeichnung oder ähnliche Technologien von deinem Gerät und Prozess, so wie Persönliche Daten Inhalte und Werbungen, genauso wie social Media und den Verkehr zu analysieren.

  • Aufbewahrung und/oder Zugang zu deiner Geräte Informationen.

    Cookies, Geräte Bezeichnung oder andere Informationen, können aufbewahrt oder Zugang zu deinem Gerät erhalten, für den Grund, der oben angegeben wird.

  • Personalisierte Werbung und Inhalte, Messungen, Einblick in das Publikum und Produkt Entwicklung.

    Werbungen und Inhalte können personalisiert werden, basierend auf ein Profil. Mehr Daten können besser personalisierte Werbungen und Inhalte hinzufügen. Werbung und Inhalte können gezeigt und gemessen werden. Einblicke über das Publikum, welche die Werbung gesehen haben und den Inhalt, können abgeleitet werden. So wie Daten können genutzt werden, um es zu verbessern oder die Benutzer Erfahrung zu verbessern das System und die Software.

Wenn du “Ich stimme zu” klickst, erlaubst du uns, die Cookies zu benutzen die Geräte Bezeichnung, den Web oder ähnliche Technologien zu benutzen. Deine Settings, können in deinem Gerät bei deinem Browser geändert werden.

Für den bestimmten Zweck, berechtigten Interessen beruhen darauf, mehr als auf den Inhalt. Du kannst mehr darüber in unseren Privaten und Cookie Politik lesen.